Hourly Weather Dalsze

Today, 17 April, Saturday

Time Temperature Precipitation Wind Pressure Humidity
00:00 +3°C° 0.2 mm 4 mps 760 mmHg 87%
01:00 +3°C° 0.2 mm 4 mps 760 mmHg 90%
02:00 +3°C° 0 mm 3 mps 760 mmHg 91%
03:00 +3°C° 0 mm 3 mps 760 mmHg 92%
04:00 +3°C° 0 mm 3 mps 759 mmHg 93%
05:00 +3°C° 0 mm 3 mps 760 mmHg 93%
06:00 +3°C° 0 mm 3 mps 760 mmHg 93%
07:00 +4°C° 0 mm 3 mps 760 mmHg 92%
08:00 +4°C° 0 mm 3 mps 760 mmHg 91%
09:00 +5°C° 0 mm 3 mps 760 mmHg 89%
10:00 +7°C° 0 mm 3 mps 760 mmHg 87%
11:00 +8°C° 0 mm 3 mps 760 mmHg 84%
12:00 +8°C° 0 mm 4 mps 760 mmHg 80%
13:00 +10°C° 0 mm 4 mps 760 mmHg 76%
14:00 +11°C° 0.1 mm 4 mps 759 mmHg 76%
15:00 +11°C° 0.1 mm 4 mps 759 mmHg 76%
16:00 +10°C° 0.1 mm 5 mps 759 mmHg 76%
17:00 +10°C° 0.3 mm 4 mps 759 mmHg 82%
18:00 +8°C° 0.3 mm 4 mps 759 mmHg 88%
19:00 +6°C° 0.3 mm 4 mps 759 mmHg 94%
20:00 +7°C° 0 mm 3 mps 759 mmHg 94%
21:00 +5°C° 0 mm 3 mps 759 mmHg 95%
22:00 +6°C° 0 mm 2 mps 759 mmHg 96%
23:00 +6°C° 0 mm 2 mps 759 mmHg 95%

Tomorrow, 18 April, Sunday

Time Temperature Precipitation Wind Pressure Humidity
00:00 +6°C° 0 mm 2 mps 759 mmHg 95%
01:00 +6°C° 0 mm 2 mps 759 mmHg 95%
02:00 +6°C° 0 mm 2 mps 759 mmHg 96%
03:00 +6°C° 0 mm 2 mps 759 mmHg 96%
04:00 +6°C° 0 mm 2 mps 759 mmHg 96%
05:00 +7°C° 0 mm 2 mps 759 mmHg 94%
06:00 +7°C° 0 mm 3 mps 759 mmHg 91%
07:00 +8°C° 0 mm 3 mps 759 mmHg 88%
08:00 +9°C° 0.1 mm 3 mps 759 mmHg 82%
09:00 +11°C° 0.1 mm 4 mps 759 mmHg 77%
10:00 +12°C° 0.1 mm 4 mps 759 mmHg 71%
11:00 +13°C° 0.7 mm 4 mps 759 mmHg 70%
12:00 +13°C° 0.7 mm 4 mps 759 mmHg 70%
13:00 +13°C° 0.7 mm 4 mps 759 mmHg 69%
14:00 +13°C° 0.4 mm 4 mps 758 mmHg 69%
15:00 +13°C° 0.4 mm 4 mps 758 mmHg 69%
16:00 +13°C° 0.4 mm 4 mps 758 mmHg 69%
17:00 +12°C° 0.4 mm 3 mps 758 mmHg 75%
18:00 +11°C° 0.4 mm 3 mps 758 mmHg 81%
19:00 +10°C° 0.4 mm 3 mps 759 mmHg 87%
20:00 +9°C° 0 mm 3 mps 759 mmHg 90%
21:00 +8°C° 0 mm 2 mps 759 mmHg 92%
22:00 +8°C° 0 mm 2 mps 759 mmHg 95%
23:00 +8°C° 0.3 mm 2 mps 759 mmHg 95%

Day after tomorrow, 19 April, Monday

Time Temperature Precipitation Wind Pressure Humidity
00:00 +8°C° 0.3 mm 2 mps 759 mmHg 96%
01:00 +8°C° 0.3 mm 2 mps 758 mmHg 96%
02:00 +8°C° 0.1 mm 2 mps 758 mmHg 96%
03:00 +8°C° 0.1 mm 2 mps 758 mmHg 96%
04:00 +8°C° 0.1 mm 2 mps 758 mmHg 96%
05:00 +9°C° 0.1 mm 2 mps 758 mmHg 95%
06:00 +9°C° 0.1 mm 3 mps 758 mmHg 94%
07:00 +9°C° 0.1 mm 3 mps 758 mmHg 92%
08:00 +10°C° 0.1 mm 3 mps 758 mmHg 88%
09:00 +11°C° 0.1 mm 3 mps 758 mmHg 83%
10:00 +11°C° 0.1 mm 4 mps 758 mmHg 79%
11:00 +12°C° 0 mm 4 mps 758 mmHg 70%
12:00 +14°C° 0 mm 4 mps 758 mmHg 61%
13:00 +15°C° 0 mm 4 mps 758 mmHg 53%
14:00 +15°C° 0 mm 4 mps 758 mmHg 53%
15:00 +14°C° 0 mm 3 mps 757 mmHg 54%
16:00 +14°C° 0 mm 3 mps 757 mmHg 55%
17:00 +13°C° 0 mm 3 mps 757 mmHg 59%
18:00 +12°C° 0 mm 3 mps 757 mmHg 63%
19:00 +12°C° 0 mm 2 mps 757 mmHg 68%
20:00 +10°C° 0 mm 2 mps 757 mmHg 70%
21:00 +10°C° 0 mm 2 mps 757 mmHg 72%
22:00 +9°C° 0 mm 3 mps 757 mmHg 74%
23:00 +9°C° 0 mm 2 mps 757 mmHg 76%

20 April, Tuesday

Time Temperature Precipitation Wind Pressure Humidity
00:00 +8°C° 0 mm 2 mps 757 mmHg 79%
01:00 +8°C° 0 mm 2 mps 756 mmHg 81%
02:00 +8°C° 0 mm 2 mps 756 mmHg 83%
03:00 +7°C° 0 mm 2 mps 756 mmHg 85%
04:00 +8°C° 0 mm 1 mps 756 mmHg 87%
05:00 +7°C° 0 mm 2 mps 756 mmHg 85%
06:00 +8°C° 0 mm 2 mps 756 mmHg 83%
07:00 +9°C° 0 mm 2 mps 756 mmHg 81%
08:00 +10°C° 0.2 mm 2 mps 756 mmHg 76%
09:00 +12°C° 0.2 mm 2 mps 755 mmHg 70%
10:00 +12°C° 0.2 mm 3 mps 755 mmHg 65%
11:00 +12°C° 0.1 mm 3 mps 755 mmHg 63%
12:00 +12°C° 0.1 mm 3 mps 755 mmHg 61%
13:00 +12°C° 0.1 mm 3 mps 754 mmHg 58%
14:00 +12°C° 0.1 mm 3 mps 754 mmHg 59%
15:00 +12°C° 0.1 mm 3 mps 754 mmHg 59%
16:00 +13°C° 0.1 mm 2 mps 753 mmHg 60%
17:00 +12°C° 0 mm 2 mps 753 mmHg 64%
18:00 +10°C° 0 mm 2 mps 753 mmHg 69%
19:00 +8°C° 0 mm 2 mps 753 mmHg 73%
20:00 +8°C° 0 mm 2 mps 753 mmHg 78%
21:00 +7°C° 0 mm 2 mps 753 mmHg 83%
22:00 +6°C° 0 mm 2 mps 753 mmHg 88%
23:00 +6°C° 0 mm 1 mps 753 mmHg 89%

21 April, Wednesday

Time Temperature Precipitation Wind Pressure Humidity
00:00 +6°C° 0 mm 1 mps 753 mmHg 90%
01:00 +6°C° 0 mm 1 mps 752 mmHg 90%
02:00 +5°C° 0 mm 1 mps 752 mmHg 91%
03:00 +5°C° 0 mm 1 mps 752 mmHg 91%
04:00 +5°C° 0 mm 1 mps 752 mmHg 91%
05:00 +6°C° 0 mm 1 mps 752 mmHg 86%
06:00 +7°C° 0 mm 1 mps 752 mmHg 81%
07:00 +8°C° 0 mm 1 mps 752 mmHg 77%
08:00 +10°C° 0 mm 1 mps 752 mmHg 70%
09:00 +10°C° 0 mm 0 mps 751 mmHg 64%
10:00 +12°C° 0 mm 0 mps 751 mmHg 58%
11:00 +13°C° 0.1 mm 1 mps 751 mmHg 55%
12:00 +14°C° 0.1 mm 1 mps 751 mmHg 52%
13:00 +15°C° 0.1 mm 1 mps 750 mmHg 50%
14:00 +15°C° 0.1 mm 1 mps 750 mmHg 50%
15:00 +15°C° 0.1 mm 1 mps 750 mmHg 50%
16:00 +15°C° 0.1 mm 1 mps 750 mmHg 50%
17:00 +14°C° 0 mm 1 mps 750 mmHg 56%
18:00 +13°C° 0 mm 1 mps 750 mmHg 61%
19:00 +10°C° 0 mm 2 mps 750 mmHg 66%
20:00 +10°C° 0 mm 2 mps 750 mmHg 68%
21:00 +9°C° 0 mm 2 mps 750 mmHg 69%
22:00 +9°C° 0 mm 3 mps 750 mmHg 71%
23:00 +8°C° 0 mm 3 mps 750 mmHg 72%

22 April, Thursday

Time Temperature Precipitation Wind Pressure Humidity
00:00 +8°C° 0 mm 3 mps 750 mmHg 74%
01:00 +8°C° 0 mm 3 mps 750 mmHg 75%
02:00 +8°C° 0 mm 2 mps 749 mmHg 77%
03:00 +8°C° 0 mm 2 mps 749 mmHg 78%
04:00 +8°C° 0 mm 2 mps 749 mmHg 79%
05:00 +8°C° 0 mm 2 mps 749 mmHg 78%
06:00 +9°C° 0 mm 2 mps 749 mmHg 77%
07:00 +9°C° 0 mm 2 mps 750 mmHg 76%
08:00 +10°C° 0.1 mm 3 mps 750 mmHg 77%
09:00 +10°C° 0.1 mm 3 mps 751 mmHg 79%
10:00 +11°C° 0.1 mm 4 mps 751 mmHg 80%
11:00 +8°C° 0.5 mm 4 mps 752 mmHg 84%
12:00 +6°C° 0.5 mm 5 mps 752 mmHg 88%
13:00 +3°C° 0.5 mm 5 mps 753 mmHg 92%
14:00 +3°C° 0.5 mm 5 mps 754 mmHg 90%
15:00 +4°C° 0.5 mm 4 mps 754 mmHg 87%
16:00 +4°C° 0.5 mm 3 mps 755 mmHg 84%
17:00 +5°C° 0.1 mm 2 mps 755 mmHg 84%
18:00 +5°C° 0.1 mm 2 mps 755 mmHg 83%
19:00 +7°C° 0.1 mm 1 mps 755 mmHg 83%
20:00 +6°C° 0 mm 1 mps 755 mmHg 85%
21:00 +5°C° 0 mm 2 mps 756 mmHg 87%
22:00 +5°C° 0 mm 2 mps 756 mmHg 90%
23:00 +4°C° 0 mm 2 mps 756 mmHg 90%
Show more